Location: Couloutre
(47.4081°N, 3.2259°E)
Time: 15:18:02
(UTC+00:00)

Cosmos 2263 Rocket - Pass Details

Date: 27 February 2020
Orbit: 822 x 850 km, 71.0° (Epoch: 27 March)

Event Time Altitude Azimuth Distance (km) Brightness Sun altitude
Rises 20:36:18 0° 337° (NNW) 3,417 6.0 -31.9°
Reaches altitude 10° 20:39:05 10° 348° (NNW) 2,481 5.0 -32.3°
Enters shadow 20:41:34 22° 9° (N) 1,798 4.0 -32.7°
